Stations météo

réclame
Mon MeteoGroup
Spa/La Sauveniere, Belgique (6490): Température de l'air & dewpoint: 17.09.2018 05:00:00 - 23.09.2018 05:00:00 (CEST)Spa/La Sauveniere, Belgique (6490): Vitesse du vent & gusts: 17.09.2018 05:00:00 - 23.09.2018 05:00:00 (CEST)Spa/La Sauveniere, Belgique (6490): Direction du vent: 17.09.2018 05:00:00 - 23.09.2018 05:00:00 (CEST)Spa/La Sauveniere, Belgique (6490): reduced air pressure: 17.09.2018 05:00:00 - 23.09.2018 05:00:00 (CEST)Spa/La Sauveniere, Belgique (6490): visibility: 17.09.2018 05:00:00 - 23.09.2018 05:00:00 (CEST)
Date & Time tt [°C] td [°C] ff [km/h] ff [knt] fx [km/h] fx [knt] dd ppp [hPa] vv [km]
23.09.2018 05:00:00 9,3 8,1 22 12 - - SSE 1012,3 7
23.09.2018 04:00:00 9,2 7,9 22 12 36 19 SSE 1013,6 6
23.09.2018 03:00:00 9,2 7,9 25 14 36 19 SSE 1014,6 7
23.09.2018 02:00:00 9,1 7,8 18 10 - - S 1016,1 6
23.09.2018 01:00:00 8,7 7,0 14 8 25 14 SSE 1017,0 18
23.09.2018 00:00:00 8,7 7,5 7 4 22 12 S 1018,2 4,7
22.09.2018 23:00:00 8,8 7,7 11 6 - - SSW 1018,9 7
22.09.2018 22:00:00 8,8 8,1 7 4 14 8 S 1019,6 10
22.09.2018 21:00:00 8,8 5,6 4 2 11 6 S 1020,2 6
22.09.2018 20:00:00 8,9 5,5 7 4 - - S 1019,9 17
22.09.2018 19:00:00 9,0 5,1 0 0 11 6 N 1020,3 9
22.09.2018 18:00:00 9,3 5,9 7 4 11 6 W 1021,0 11
22.09.2018 17:00:00 9,3 5,6 7 4 - - WNW 1021,1 12
22.09.2018 16:00:00 12,6 4,0 14 8 36 19 WSW 1020,6 30
22.09.2018 15:00:00 13,0 4,4 22 12 36 19 WSW 1021,0 35
22.09.2018 14:00:00 13,3 5,5 18 10 - - WSW 1020,7 30
22.09.2018 13:00:00 12,6 6,4 18 10 32 18 WSW 1021,3 27
22.09.2018 12:00:00 11,4 7,5 14 8 29 16 SSW 1021,6 22
22.09.2018 11:00:00 9,1 7,6 14 8 - - S 1022,3 13
22.09.2018 10:00:00 8,9 5,7 11 6 25 14 SSW 1022,7 21
22.09.2018 09:00:00 8,3 5,1 14 8 25 14 SSW 1022,0 24
22.09.2018 08:00:00 8,3 6,3 14 8 - - SW 1022,5 23
22.09.2018 07:00:00 8,1 4,9 14 8 25 14 WSW 1021,9 22
22.09.2018 06:00:00 8,3 6,3 14 8 25 14 WSW 1021,4 22
22.09.2018 05:00:00 8,4 5,1 14 8 - - WSW 1021,1 21
22.09.2018 04:00:00 8,7 5,2 14 8 29 16 WSW 1021,2 20
22.09.2018 03:00:00 8,8 4,8 14 8 36 19 WSW 1020,9 23
22.09.2018 02:00:00 9,1 4,3 18 10 - - WSW 1020,4 25
22.09.2018 01:00:00 9,8 4,3 22 12 47 25 WSW 1019,8 27
22.09.2018 00:00:00 10,4 4,2 25 14 50 27 WSW 1019,0 26
21.09.2018 23:00:00 10,2 3,7 22 12 - - WSW 1018,6 30
21.09.2018 22:00:00 10,4 4,0 22 12 40 21 WSW 1017,9 35
21.09.2018 21:00:00 10,6 4,0 22 12 40 21 WSW 1016,8 40
21.09.2018 20:00:00 11,3 3,3 18 10 - - W 1015,6 40
21.09.2018 19:00:00 12,2 3,6 18 10 47 25 W 1014,6 40
21.09.2018 18:00:00 12,6 3,5 22 12 47 25 W 1013,9 35
21.09.2018 17:00:00 12,4 2,2 22 12 - - W 1013,4 40
21.09.2018 16:00:00 12,1 4,9 18 10 43 23 W 1012,6 45
21.09.2018 15:00:00 12,1 6,3 22 12 40 21 W 1011,8 30
21.09.2018 14:00:00 11,5 8,6 18 10 - - WNW 1010,8 21
21.09.2018 13:00:00 11,9 10,2 18 10 36 19 WSW 1009,8 15
21.09.2018 12:00:00 10,4 9,6 18 10 47 25 WSW 1010,2 4,1
21.09.2018 11:00:00 10,4 9,4 25 14 - - W 1009,5 4,7
21.09.2018 10:00:00 17,3 10,8 29 16 47 25 SW 1005,9 35
21.09.2018 09:00:00 17,3 9,5 25 14 54 29 SSW 1006,1 45
21.09.2018 08:00:00 17,6 9,8 32 18 - - SW 1006,1 40
21.09.2018 07:00:00 17,6 12,3 29 16 47 25 SSW 1005,9 28
21.09.2018 06:00:00 16,9 10,7 22 12 43 23 S 1006,6 35
21.09.2018 05:00:00 17,1 10,3 22 12 - - S 1007,7 40
21.09.2018 04:00:00 17,7 10,6 22 12 40 21 S 1008,7 40
21.09.2018 03:00:00 18,2 11,0 22 12 40 21 S 1009,1 40
21.09.2018 02:00:00 17,7 11,3 18 10 - - S 1010,0 35
21.09.2018 01:00:00 18,0 11,4 22 12 36 19 S 1010,5 40
21.09.2018 00:00:00 18,2 10,9 18 10 29 16 S 1011,2 40
20.09.2018 23:00:00 17,8 9,7 14 8 - - S 1012,5 35
20.09.2018 22:00:00 18,3 9,8 22 12 36 19 S 1012,8 45
20.09.2018 21:00:00 18,3 8,4 18 10 29 16 S 1013,3 45
20.09.2018 20:00:00 19,1 7,8 18 10 - - S 1013,7 40
20.09.2018 19:00:00 20,5 7,9 14 8 32 18 SSW 1013,9 40
20.09.2018 18:00:00 22,0 8,7 18 10 32 18 SSW 1014,3 35
20.09.2018 17:00:00 22,6 9,5 18 10 - - SSW 1014,8 30
20.09.2018 16:00:00 22,2 9,7 18 10 32 18 SSW 1015,8 40
20.09.2018 15:00:00 22,6 10,5 14 8 36 19 SSW 1016,2 35
20.09.2018 14:00:00 21,1 10,3 22 12 - - SW 1017,1 30
20.09.2018 13:00:00 20,0 10,3 22 12 40 21 SW 1017,6 30
20.09.2018 12:00:00 19,5 11,2 22 12 40 21 SW 1018,2 27
20.09.2018 11:00:00 18,1 11,4 22 12 - - SW 1018,8 30
20.09.2018 10:00:00 16,7 11,9 14 8 22 12 SSW 1018,7 27
20.09.2018 09:00:00 14,9 10,8 14 8 22 12 S 1019,1 22
20.09.2018 08:00:00 14,1 10,2 14 8 - - S 1019,2 20
20.09.2018 07:00:00 14,4 10,4 18 10 22 12 S 1019,1 23
20.09.2018 06:00:00 14,1 9,7 14 8 22 12 S 1019,2 23
20.09.2018 05:00:00 14,7 9,8 14 8 - - S 1019,3 20
20.09.2018 04:00:00 15,0 9,7 14 8 22 12 S 1019,3 24
20.09.2018 03:00:00 15,4 9,6 11 6 18 10 S 1019,0 22
20.09.2018 02:00:00 16,2 9,8 11 6 - - SSW 1019,4 23
20.09.2018 01:00:00 15,7 9,2 11 6 14 8 SSW 1020,0 23
20.09.2018 00:00:00 16,7 9,6 11 6 14 8 SW 1020,2 23
19.09.2018 23:00:00 17,0 9,5 7 4 - - SW 1019,9 28
19.09.2018 22:00:00 18,3 10,0 14 8 22 12 SW 1019,1 30
19.09.2018 21:00:00 18,9 10,0 11 6 18 10 WSW 1018,9 35
19.09.2018 20:00:00 20,2 10,1 11 6 - - WSW 1018,3 40
19.09.2018 19:00:00 22,1 10,7 14 8 32 18 WSW 1017,6 28
19.09.2018 18:00:00 23,3 11,5 18 10 36 19 SW 1016,8 35
19.09.2018 17:00:00 23,5 11,7 22 12 - - SW 1016,8 35
19.09.2018 16:00:00 23,2 12,2 22 12 40 21 SW 1017,0 27
19.09.2018 15:00:00 23,3 13,2 25 14 43 23 SW 1017,3 30
19.09.2018 14:00:00 22,4 12,8 25 14 - - SW 1017,7 35
19.09.2018 13:00:00 22,3 14,0 25 14 43 23 SSW 1017,5 30
19.09.2018 12:00:00 20,9 14,3 22 12 36 19 SSW 1017,9 27
19.09.2018 11:00:00 20,0 14,5 18 10 - - S 1018,0 22
19.09.2018 10:00:00 17,9 14,0 18 10 32 18 S 1018,4 19
19.09.2018 09:00:00 15,8 13,1 18 10 25 14 SSE 1018,2 16
19.09.2018 08:00:00 14,9 12,9 14 8 - - S 1018,4 15
19.09.2018 07:00:00 15,0 11,5 14 8 22 12 S 1018,5 17
19.09.2018 06:00:00 15,5 13,6 14 8 22 12 S 1018,1 18
19.09.2018 05:00:00 15,1 11,5 11 6 - - S 1018,2 17
19.09.2018 04:00:00 15,2 10,7 11 6 14 8 S 1018,2 19
19.09.2018 03:00:00 14,2 10,0 7 4 11 6 SSW 1018,5 16
19.09.2018 02:00:00 15,4 10,5 4 2 - - SSW 1018,0 23
19.09.2018 01:00:00 16,7 10,9 7 4 18 10 SSW 1017,7 24
19.09.2018 00:00:00 17,9 11,2 11 6 18 10 WSW 1017,2 30
18.09.2018 23:00:00 18,4 10,5 11 6 - - SW 1016,9 40
18.09.2018 22:00:00 19,5 10,7 11 6 14 8 SW 1016,5 45
18.09.2018 21:00:00 20,0 10,0 7 4 22 12 SSW 1016,1 35
18.09.2018 20:00:00 21,8 10,1 14 8 - - SW 1014,9 40
18.09.2018 19:00:00 23,5 9,6 11 6 36 19 SW 1013,9 40
18.09.2018 18:00:00 24,4 8,3 22 12 40 21 SW 1013,7 35
18.09.2018 17:00:00 25,4 9,0 22 12 - - SSW 1013,3 35
18.09.2018 16:00:00 26,0 8,7 22 12 43 23 SSW 1013,1 30
18.09.2018 15:00:00 26,7 7,9 18 10 36 19 SW 1012,5 35
18.09.2018 14:00:00 26,8 10,3 18 10 - - SW 1012,4 30
18.09.2018 13:00:00 25,4 11,8 18 10 36 19 SSW 1012,6 35
18.09.2018 12:00:00 24,1 12,9 18 10 29 16 SSW 1013,2 40
18.09.2018 11:00:00 21,6 11,7 18 10 - - SSE 1013,5 30
18.09.2018 10:00:00 19,2 10,1 18 10 36 19 SSE 1013,6 35
18.09.2018 09:00:00 17,7 9,4 22 12 32 18 SSE 1013,7 35
18.09.2018 08:00:00 17,3 9,1 22 12 - - SSE 1013,5 45
18.09.2018 07:00:00 17,5 9,0 22 12 32 18 SSE 1013,5 45
18.09.2018 06:00:00 17,0 8,6 25 14 32 18 SSE 1013,8 45
18.09.2018 05:00:00 16,6 7,9 22 12 - - SSE 1014,0 45
18.09.2018 04:00:00 16,9 7,9 22 12 32 18 SSE 1014,2 45
18.09.2018 03:00:00 16,6 6,9 18 10 29 16 SSE 1014,7 45
18.09.2018 02:00:00 16,5 6,2 18 10 - - SE 1015,1 45
18.09.2018 01:00:00 16,8 5,9 22 12 29 16 SSE 1015,5 45
18.09.2018 00:00:00 17,5 5,9 22 12 25 14 SSE 1015,6 45
17.09.2018 23:00:00 17,1 4,2 14 8 - - SSE 1016,1 45
17.09.2018 22:00:00 18,2 4,1 14 8 22 12 SSE 1016,1 45
17.09.2018 21:00:00 18,6 4,3 18 10 22 12 SSE 1016,1 45
17.09.2018 20:00:00 19,1 3,8 11 6 - - SSE 1016,2 40
17.09.2018 19:00:00 21,2 4,6 7 4 11 6 S 1016,1 40
17.09.2018 18:00:00 23,4 4,3 7 4 18 10 S 1016,1 40
17.09.2018 17:00:00 23,6 4,5 11 6 - - S 1016,6 40
17.09.2018 16:00:00 23,5 5,2 14 8 22 12 SSW 1017,4 35
17.09.2018 15:00:00 23,0 5,8 11 6 22 12 SSW 1017,9 45
17.09.2018 14:00:00 21,9 7,6 11 6 - - S 1018,7 40
17.09.2018 13:00:00 20,4 8,2 11 6 22 12 SSW 1019,4 30
17.09.2018 12:00:00 19,3 9,1 7 4 14 8 S 1020,0 30
17.09.2018 11:00:00 18,2 10,6 11 6 - - S 1020,4 35
17.09.2018 10:00:00 17,4 10,8 4 2 14 8 S 1020,5 35
17.09.2018 09:00:00 14,2 8,8 11 6 22 12 S 1020,9 35
17.09.2018 08:00:00 11,9 7,0 18 10 - - SSE 1020,8 45
17.09.2018 07:00:00 10,9 6,2 11 6 22 12 S 1021,4 45
17.09.2018 06:00:00 10,9 5,8 18 10 22 12 SSE 1021,3 45
17.09.2018 05:00:00 10,7 5,5 11 6 - - S 1021,3 45

tt = Température de l'air
td = dewpoint
ff = Vitesse du vent
fx = gusts
dd = Direction du vent
ppp = reduced air pressure
vv = visibility

stations d'obs. à proximité